Alpine, TX

6:13 AM CDT on July 21, 2017 (GMT -0500)
Alpine

Weather History for KE38 - February, 2013

Change the Weather History Date:

Saturday, February 2, 2013

  Actual Average (KMRF) Record (KMRF)
Temperature  
Mean Temperature 48 °F -  
Max Temperature 62 °F 57 °F 75 °F (2003)
Min Temperature 33 °F 27 °F 3 °F (2011)
Degree Days  
Heating Degree Days 18    
Moisture  
Dew Point 16 °F    
Average Humidity 29    
Maximum Humidity 56    
Minimum Humidity 16    
Precipitation  
Precipitation 0.00 in - - ()
Sea Level Pressure  
Sea Level Pressure 30.35 in    
Wind  
Wind Speed 8 mph (WNW)    
Max Wind Speed 14 mph    
Max Gust Speed 20 mph    
Visibility 10 miles    
Events      
Averages and records for this station are not official NWS values.
T = Trace of Precipitation, MM = Missing Value Source: NWS Daily Summary

Daily Weather History Graph

Daily Weather History Graph

Search for Another Location

Airport or City:

Trip Planner

Search our weather history database for the weather conditions in past years. The results will help you decide how hot, cold, wet, or windy it might be!

Date:

Astronomy

Feb. 02, 2013 Rise Set
Actual Time 7:44 AM CST 6:32 PM CST
Civil Twilight 7:19 AM CST 6:57 PM CST
Nautical Twilight 6:51 AM CST 7:26 PM CST
Astronomical Twilight 6:22 AM CST 7:54 PM CST
Moon 12:10 AM CST (2/2) 11:29 AM CST (2/2)
Length of Visible Light 11h 37m
Length of Day
10h 47m
Waning Gibbous, 59% of the Moon is Illuminated
Feb 2
Waning Gibbous
Feb 3
Last Quarter
Feb 10
New
Feb 17
First Quarter
Feb 25
Full

Hourly Weather History & Observations

Time (CST) Temp. Windchill Dew Point Humidity Pressure Visibility Wind Dir Wind Speed Gust Speed Precip Events Conditions
12:15 AM 47.3 °F - 16.0 °F 29% 30.26 in 10.0 mi South 12.7 mph - N/A   Clear
12:35 AM 49.6 °F - 16.0 °F 26% 30.27 in 10.0 mi South 12.7 mph - N/A   Clear
12:55 AM 49.6 °F - 15.8 °F 26% 30.27 in 10.0 mi South 10.4 mph - N/A   Clear
1:15 AM 48.4 °F - 15.6 °F 27% 30.27 in 10.0 mi South 9.2 mph - N/A   Clear
1:35 AM 48.9 °F - 15.8 °F 27% 30.27 in 10.0 mi SSW 11.5 mph - N/A   Clear
1:55 AM 49.3 °F - 15.8 °F 26% 30.27 in 10.0 mi South 9.2 mph - N/A   Clear
2:15 AM 48.2 °F - 16.0 °F 28% 30.27 in 10.0 mi South 11.5 mph - N/A   Clear
2:35 AM 48.9 °F - 16.0 °F 27% 30.27 in 10.0 mi SSW 12.7 mph - N/A   Clear
2:55 AM 49.5 °F - 15.8 °F 26% 30.27 in 10.0 mi SSW 11.5 mph - N/A   Clear
3:15 AM 49.6 °F - 16.0 °F 26% 30.27 in 10.0 mi South 12.7 mph - N/A   Clear
3:35 AM 51.4 °F - 15.1 °F 24% 30.27 in 10.0 mi SW 10.4 mph - N/A   Clear
3:55 AM 52.2 °F - 14.5 °F 22% 30.27 in 10.0 mi SW 11.5 mph - N/A   Clear
4:15 AM 51.3 °F - 14.4 °F 23% 30.27 in 10.0 mi Calm Calm - N/A   Clear
4:35 AM 50.5 °F - 14.2 °F 23% 30.28 in 10.0 mi South 6.9 mph - N/A   Clear
4:55 AM 47.3 °F - 13.5 °F 26% 30.28 in 10.0 mi SSW 5.8 mph - N/A   Clear
5:15 AM 42.8 °F 37.5 °F 14.2 °F 31% 30.28 in 10.0 mi South 9.2 mph - N/A   Clear
5:35 AM 42.4 °F 38.1 °F 15.1 °F 33% 30.29 in 10.0 mi SW 6.9 mph - N/A   Clear
5:55 AM 43.0 °F 40.3 °F 13.6 °F 30% 30.30 in 10.0 mi SW 4.6 mph - N/A   Clear
6:15 AM 37.8 °F 33.3 °F 13.1 °F 36% 30.30 in 10.0 mi SSW 5.8 mph - N/A   Clear
6:35 AM 35.4 °F 31.5 °F 13.5 °F 41% 30.30 in 10.0 mi SW 4.6 mph - N/A   Clear
6:55 AM 33.3 °F 30.2 °F 14.0 °F 45% 30.31 in 10.0 mi SSE 3.5 mph - N/A   Clear
7:15 AM 36.5 °F 31.0 °F 14.0 °F 40% 30.31 in 10.0 mi SE 6.9 mph - N/A   Clear
7:35 AM 35.6 °F 30.7 °F 13.8 °F 41% 30.32 in 10.0 mi South 5.8 mph - N/A   Clear
7:55 AM 35.6 °F 29.9 °F 14.2 °F 42% 30.33 in 10.0 mi South 6.9 mph - N/A   Clear
8:15 AM 34.9 °F - 15.3 °F 45% 30.35 in 10.0 mi Calm Calm - N/A   Clear
8:35 AM 35.6 °F - 15.6 °F 44% 30.36 in 10.0 mi Calm Calm - N/A   Clear
8:55 AM 39.7 °F - 16.0 °F 38% 30.38 in 10.0 mi Calm Calm - N/A   Clear
9:15 AM 43.9 °F 41.3 °F 15.8 °F 32% 30.39 in 10.0 mi North 4.6 mph - N/A   Clear
9:35 AM 48.0 °F - 15.8 °F 28% 30.39 in 10.0 mi WNW 6.9 mph - N/A   Clear
9:55 AM 50.0 °F - 16.0 °F 26% 30.39 in 10.0 mi Calm Calm - N/A   Clear
10:15 AM 52.7 °F - 16.0 °F 23% 30.39 in 10.0 mi NW 5.8 mph - N/A   Clear
10:35 AM 55.8 °F - 15.4 °F 20% 30.40 in 10.0 mi NW 9.2 mph - N/A   Clear
10:55 AM 56.5 °F - 14.7 °F 19% 30.40 in 10.0 mi NW 10.4 mph - N/A   Clear
11:15 AM 58.3 °F - 14.2 °F 18% 30.40 in 10.0 mi NW 9.2 mph - N/A   Clear
11:35 AM 60.3 °F - 14.7 °F 17% 30.40 in 10.0 mi NNW 11.5 mph - N/A   Clear
11:55 AM 61.3 °F - 14.5 °F 16% 30.40 in 10.0 mi NW 11.5 mph - N/A   Clear
12:15 PM 61.3 °F - 14.7 °F 16% 30.40 in 10.0 mi NW 10.4 mph 16.1 mph N/A   Clear
12:35 PM 61.9 °F - 15.6 °F 17% 30.40 in 10.0 mi North 12.7 mph 17.3 mph N/A   Clear
12:55 PM 62.1 °F - 15.1 °F 16% 30.39 in 10.0 mi North 10.4 mph 17.3 mph N/A   Clear
1:15 PM 62.4 °F - 14.5 °F 16% 30.38 in 10.0 mi North 11.5 mph 19.6 mph N/A   Clear
1:35 PM 62.2 °F - 14.4 °F 16% 30.37 in 10.0 mi North 13.8 mph - N/A   Clear
1:55 PM 62.4 °F - 14.5 °F 16% 30.36 in 10.0 mi NNW 12.7 mph - N/A   Clear
2:15 PM 62.4 °F - 15.6 °F 16% 30.36 in 10.0 mi NNE 9.2 mph 16.1 mph N/A   Clear
2:35 PM 62.1 °F - 15.8 °F 17% 30.36 in 10.0 mi NNE 10.4 mph 19.6 mph N/A   Clear
2:55 PM 61.7 °F - 15.8 °F 17% 30.36 in 10.0 mi NNE 11.5 mph 16.1 mph N/A   Clear
3:15 PM 61.5 °F - 15.3 °F 17% 30.36 in 10.0 mi NE 8.1 mph - N/A   Clear
3:35 PM 61.2 °F - 15.1 °F 17% 30.36 in 10.0 mi NNE 6.9 mph 16.1 mph N/A   Clear
3:55 PM 61.3 °F - 15.3 °F 17% 30.36 in 10.0 mi NNE 12.7 mph - N/A   Clear
4:15 PM 61.2 °F - 15.6 °F 17% 30.35 in 10.0 mi North 10.4 mph 18.4 mph N/A   Clear
4:35 PM 60.8 °F - 15.4 °F 17% 30.36 in 10.0 mi NE 5.8 mph - N/A   Clear
4:55 PM 60.4 °F - 15.6 °F 17% 30.36 in 10.0 mi North 9.2 mph - N/A   Clear
5:15 PM 59.9 °F - 16.7 °F 19% 30.36 in 10.0 mi NNE 10.4 mph - N/A   Clear
5:35 PM 59.0 °F - 17.2 °F 20% 30.36 in 10.0 mi North 8.1 mph - N/A   Clear
5:55 PM 57.9 °F - 17.4 °F 21% 30.37 in 10.0 mi North 6.9 mph - N/A   Clear
6:15 PM 55.9 °F - 18.1 °F 23% 30.37 in 10.0 mi NNE 5.8 mph - N/A   Clear
6:35 PM 52.9 °F - 18.3 °F 26% 30.38 in 10.0 mi NE 4.6 mph - N/A   Clear
6:55 PM 50.4 °F - 18.9 °F 29% 30.39 in 10.0 mi ENE 4.6 mph - N/A   Clear
7:15 PM 48.0 °F - 19.2 °F 32% 30.39 in 10.0 mi NE 3.5 mph - N/A   Clear
7:35 PM 47.3 °F - 19.4 °F 33% 30.40 in 10.0 mi Calm Calm - N/A   Clear
7:55 PM 46.0 °F - 19.8 °F 35% 30.40 in 10.0 mi Calm Calm - N/A   Clear
8:15 PM 43.3 °F 41.7 °F 19.2 °F 38% 30.40 in 10.0 mi SW 3.5 mph - N/A   Clear
8:35 PM 39.6 °F - 19.4 °F 44% 30.41 in 10.0 mi Calm Calm - N/A   Clear
8:55 PM 41.2 °F - 19.8 °F 42% 30.41 in 10.0 mi Calm Calm - N/A   Clear
9:15 PM 41.5 °F - 19.9 °F 42% 30.42 in 10.0 mi Calm Calm - N/A   Clear
9:35 PM 40.3 °F 38.2 °F 20.3 °F 45% 30.42 in 10.0 mi West 3.5 mph - N/A   Clear
9:55 PM 40.6 °F - 20.7 °F 45% 30.42 in 10.0 mi Calm Calm - N/A   Clear
10:15 PM 41.2 °F 39.2 °F 21.0 °F 45% 30.42 in 10.0 mi West 3.5 mph - N/A   Clear
10:35 PM 41.2 °F 39.2 °F 21.4 °F 45% 30.42 in 10.0 mi WNW 3.5 mph - N/A   Clear
11:15 PM 39.6 °F 37.4 °F 21.9 °F 49% 30.41 in 10.0 mi West 3.5 mph - N/A   Clear
11:35 PM 37.8 °F - 22.3 °F 54% 30.41 in 10.0 mi Calm Calm - N/A   Clear
11:55 PM 37.0 °F - 22.8 °F 56% 30.41 in 10.0 mi Calm Calm - N/A   Clear